Weather History for Tonopah, NV

Change the Weather History Date:

Friday, May 10, 2013

  Actual Average Record
Temperature  
Mean Temperature 61 °F 57 °F  
Max Temperature 79 °F 72 °F 90 °F (1960)
Min Temperature 43 °F 42 °F 26 °F (1991)
Degree Days  
Heating Degree Days 4 8  
Month to date heating degree days 97 97  
Since 1 July heating degree days 4838 5290  
Cooling Degree Days 0 0  
Month to date cooling degree days 0 0  
Year to date cooling degree days 1 1  
Growing Degree Days 10 (Base 50)    
Moisture  
Dew Point 31 °F    
Average Humidity 40    
Maximum Humidity 65    
Minimum Humidity 14    
Precipitation  
Precipitation T in 0.02 in 0.33 in (1980)
Month to date precipitation 0.20 0.15  
Year to date precipitation 0.96 2.15  
Sea Level Pressure  
Sea Level Pressure 30.13 in    
Wind  
Wind Speed 9 mph (NNE)    
Max Wind Speed 31 mph    
Max Gust Speed 43 mph    
Visibility 10 miles    
Events      
T = Trace of Precipitation, MM = Missing Value Source: NWS Daily Summary

Daily Weather History Graph

Daily Weather History Graph

Search for Another Location

Airport:

Trip Planner

Search our weather history database for the weather conditions in past years. The results will help you decide how hot, cold, wet, or windy it might be!

Date:

Astronomy

May. 10, 2013 Rise Set
Actual Time 5:42 AM PDT 7:47 PM PDT
Civil Twilight 5:13 AM PDT 8:17 PM PDT
Nautical Twilight 4:37 AM PDT 8:52 PM PDT
Astronomical Twilight 3:58 AM PDT 9:31 PM PDT
Moon 6:09 AM PDT (5/10) 8:41 PM PDT (5/10)
Length of Visible Light 15h 04m
Length of Day
14h 05m
New Moon, 1% of the Moon is Illuminated
May 10
New Moon
May 17
First Quarter
May 24
Full
May 31
Last Quarter
Jun 8
New

Hourly Weather History & Observations

Time (PDT) Temp. Windchill Dew Point Humidity Pressure Visibility Wind Dir Wind Speed Gust Speed Precip Events Conditions
12:56 AM 52.0 °F - 37.9 °F 59% 30.10 in 10.0 mi NNE 8.1 mph - N/A   Clear
1:56 AM 46.9 °F - 36.0 °F 66% 30.10 in 10.0 mi North 10.4 mph - N/A   Clear
2:56 AM 46.0 °F 41.4 °F 36.0 °F 68% 30.10 in 10.0 mi North 9.2 mph - N/A   Clear
3:56 AM 46.9 °F - 35.1 °F 63% 30.09 in 10.0 mi NNE 12.7 mph - N/A   Clear
4:56 AM 45.0 °F 41.2 °F 34.0 °F 65% 30.12 in 10.0 mi North 6.9 mph - N/A   Partly Cloudy
5:56 AM 45.0 °F 39.7 °F 34.0 °F 65% 30.15 in 10.0 mi North 10.4 mph - N/A   Clear
6:56 AM 50.0 °F - 34.0 °F 54% 30.16 in 10.0 mi NNE 12.7 mph - N/A   Clear
7:56 AM 57.0 °F - 34.0 °F 42% 30.16 in 10.0 mi NNE 9.2 mph - N/A   Clear
8:56 AM 61.0 °F - 37.0 °F 41% 30.16 in 10.0 mi East 3.5 mph - N/A   Clear
9:56 AM 68.0 °F - 34.0 °F 28% 30.13 in 10.0 mi Variable 3.5 mph - N/A   Partly Cloudy
10:56 AM 73.0 °F - 28.0 °F 19% 30.12 in 10.0 mi NNE 9.2 mph - N/A   Partly Cloudy
11:56 AM 71.1 °F - 30.9 °F 23% 30.12 in 10.0 mi NW 9.2 mph - N/A   Mostly Cloudy
12:29 PM 69.8 °F - 33.8 °F 27% 30.27 in 10.0 mi ESE 15.0 mph - N/A   Mostly Cloudy
12:56 PM 71.1 °F - 30.0 °F 22% 30.12 in 10.0 mi Calm Calm - N/A   Mostly Cloudy
1:56 PM 73.9 °F - 27.0 °F 18% 30.11 in 10.0 mi NNE 5.8 mph - 0.00 in   Clear
2:56 PM 73.0 °F - 27.0 °F 18% 30.11 in 10.0 mi North 16.1 mph 31.1 mph 0.00 in   Mostly Cloudy
3:56 PM 75.9 °F - 26.1 °F 16% 30.08 in 10.0 mi NE 12.7 mph 18.4 mph N/A   Clear
4:56 PM 73.0 °F - 21.9 °F 15% 30.09 in 10.0 mi ESE 18.4 mph 42.6 mph N/A   Mostly Cloudy
5:03 PM 71.6 °F - 23.0 °F 16% 30.23 in 10.0 mi SE 8.1 mph 23.0 mph N/A   Mostly Cloudy
5:56 PM 73.0 °F - 28.9 °F 20% 30.09 in 10.0 mi West 16.1 mph - N/A   Clear
6:56 PM 72.0 °F - 30.0 °F 21% 30.09 in 10.0 mi WNW 13.8 mph - N/A   Mostly Cloudy
7:56 PM 69.1 °F - 30.9 °F 24% 30.11 in 10.0 mi North 6.9 mph - N/A   Mostly Cloudy
8:56 PM 61.0 °F - 30.9 °F 32% 30.13 in 10.0 mi NW 6.9 mph - N/A   Clear
9:56 PM 61.0 °F - 30.9 °F 32% 30.14 in 10.0 mi Calm Calm - N/A   Mostly Cloudy
10:56 PM 57.9 °F - 33.1 °F 39% 30.14 in 10.0 mi ENE 5.8 mph - N/A   Clear
11:56 PM 55.0 °F - 34.0 °F 45% 30.17 in 10.0 mi North 6.9 mph - N/A   Clear